EW0610 Weather Reports


time (UTC)temp
F
wind
direction
speed
knots
gust
knots
rain 1hr
in
rain 24hr
in
rain mn
in
humidity
%
barometer
mb
20240222120134 63 153 6.1 13.0 0.00 0.00 0.00 83 1006.8
20240222115626 63 153 5.2 13.0 0.00 0.00 0.00 83 1006.8
20240222115122 63 153 1.7 12.2 0.00 0.00 0.00 83 1006.5
20240222114635 63 153 6.1 13.0 0.00 0.00 0.00 83 1006.7
20240222114125 63 153 3.5 13.0 0.00 0.00 0.00 83 1006.6
20240222113633 63 153 0.9 11.3 0.00 0.00 0.00 83 1006.6
20240222113140 63 264 7.8 13.0 0.00 0.00 0.00 83 1006.6
20240222112631 63 153 7.8 13.0 0.00 0.00 0.00 83 1006.7
20240222112139 63 153 0.9 13.0 0.00 0.00 0.00 82 1006.6
20240222111629 63 153 1.7 9.6 0.00 0.00 0.00 82 1006.5
20240222111137 64 153 1.7 12.2 0.00 0.00 0.00 82 1006.8
20240222110629 64 153 2.6 13.0 0.00 0.00 0.00 82 1007.0
20240222110141 64 153 1.7 13.0 0.00 0.00 0.00 82 1006.8
20240222105630 64 153 5.2 9.6 0.00 0.00 0.00 82 1006.7
20240222105141 64 153 0.0 13.0 0.00 0.00 0.00 82 1006.7
20240222104655 64 153 0.9 15.6 0.00 0.00 0.00 81 1006.7
20240222104205 64 153 3.5 15.6 0.00 0.00 0.00 82 1006.7
20240222103635 64 153 3.5 13.0 0.00 0.00 0.00 81 1006.6
20240222103129 64 153 10.4 13.9 0.00 0.00 0.00 81 1006.8
20240222102624 64 153 10.4 13.9 0.00 0.00 0.00 81 1006.5
20240222102202 64 153 3.5 13.0 0.00 0.00 0.00 81 1006.6
20240222101638 64 153 1.7 13.0 0.00 0.00 0.00 81 1006.5
20240222101130 64 153 4.3 14.8 0.00 0.00 0.00 81 1006.6
20240222100637 65 153 8.7 15.6 0.00 0.00 0.00 81 1006.7
20240222100132 64 153 7.8 15.6 0.00 0.00 0.00 81 1006.9
20240222095626 64 153 4.3 14.8 0.00 0.00 0.00 81 1006.8
20240222095133 64 153 6.1 13.9 0.00 0.00 0.00 81 1006.7
20240222094651 64 153 7.8 13.9 0.00 0.00 0.00 81 1006.9
20240222094156 65 153 6.1 13.9 0.00 0.00 0.00 80 1007.1
20240222093643 65 153 6.1 15.6 0.00 0.00 0.00 80 1006.9
20240222093130 65 153 8.7 15.6 0.00 0.00 0.00 80 1007.3
20240222092626 65 153 9.6 13.9 0.00 0.00 0.00 80 1007.2
20240222092135 65 153 7.0 16.5 0.00 0.00 0.00 80 1007.3
20240222091641 65 153 6.1 16.5 0.00 0.00 0.00 80 1007.4
20240222091134 64 153 3.5 12.2 0.00 0.00 0.00 80 1007.3
20240222090628 64 153 7.0 12.2 0.00 0.00 0.00 80 1007.5
20240222090124 64 153 5.2 13.9 0.00 0.00 0.00 80 1007.6
20240222085638 64 153 5.2 15.6 0.00 0.00 0.00 80 1007.7
20240222085128 64 153 8.7 15.6 0.00 0.00 0.00 80 1007.7
20240222084632 64 153 7.8 13.9 0.00 0.00 0.00 80 1007.8
20240222084127 64 153 3.5 13.0 0.00 0.00 0.00 80 1007.9
20240222083633 64 153 5.2 13.0 0.00 0.00 0.00 80 1008.0
20240222083142 64 153 0.9 14.8 0.00 0.00 0.00 80 1008.1
20240222082631 64 153 5.2 14.8 0.00 0.00 0.00 80 1008.1
20240222082142 64 153 1.7 13.9 0.00 0.00 0.00 80 1008.1
20240222081633 64 153 8.7 13.9 0.00 0.00 0.00 80 1008.2
20240222081130 64 153 8.7 12.2 0.00 0.00 0.00 80 1008.2
20240222080631 64 153 5.2 12.2 0.00 0.00 0.00 80 1008.4
20240222080125 64 153 8.7 16.5 0.00 0.00 0.00 80 1008.3
20240222075637 64 153 9.6 16.5 0.00 0.00 0.00 80 1008.4
20240222075144 64 153 1.7 16.5 0.00 0.00 0.00 79 1008.4
20240222074653 65 153 7.8 16.5 0.00 0.00 0.00 79 1008.5
20240222074208 65 153 8.7 14.8 0.00 0.00 0.00 79 1008.5
20240222073658 65 153 7.0 14.8 0.00 0.00 0.00 79 1008.5
20240222073142 65 153 5.2 13.9 0.00 0.00 0.00 79 1008.5
20240222072651 65 153 3.5 13.9 0.00 0.00 0.00 78 1008.6
20240222072141 65 153 2.6 13.9 0.00 0.00 0.00 78 1008.6
20240222071638 65 153 9.6 15.6 0.00 0.00 0.00 78 1008.6
20240222071134 65 153 10.4 13.9 0.00 0.00 0.00 78 1008.6
20240222070641 65 153 9.6 13.9 0.00 0.00 0.00 78 1008.7
20240222070134 65 153 8.7 13.9 0.00 0.00 0.00 77 1008.7
20240222065642 65 153 8.7 13.0 0.00 0.00 0.00 77 1008.7
20240222065127 65 153 5.2 13.0 0.00 0.00 0.00 77 1008.7
20240222064659 65 153 6.1 14.8 0.00 0.00 0.00 77 1008.7
20240222064134 66 153 7.8 15.6 0.00 0.00 0.00 76 1008.7
20240222063627 66 153 10.4 15.6 0.00 0.00 0.00 76 1008.6
20240222063137 66 153 7.0 16.5 0.00 0.00 0.00 76 1008.7
20240222062628 66 153 7.0 16.5 0.00 0.00 0.00 76 1008.8
20240222062139 66 153 7.0 14.8 0.00 0.00 0.00 75 1008.8
20240222061644 66 153 9.6 19.1 0.00 0.00 0.00 75 1008.7
20240222061139 66 153 11.3 19.1 0.00 0.00 0.00 74 1008.6
20240222060631 67 153 0.9 15.6 0.00 0.00 0.00 74 1008.7
20240222060142 67 153 10.4 15.6 0.00 0.00 0.00 73 1008.7
20240222055624 67 153 8.7 16.5 0.00 0.00 0.00 73 1008.7
20240222055139 67 153 7.0 17.4 0.00 0.00 0.00 73 1008.6
20240222054630 67 153 8.7 17.4 0.00 0.00 0.00 73 1008.5
20240222054138 67 153 9.6 15.6 0.00 0.00 0.00 72 1008.5
20240222053622 67 196 9.6 17.4 0.00 0.00 0.00 72 1008.5
20240222053201 68 153 8.7 17.4 0.00 0.00 0.00 71 1008.5
20240222052635 68 153 9.6 16.5 0.00 0.00 0.00 71 1008.5
20240222052143 68 153 8.7 16.5 0.00 0.00 0.00 71 1008.6
20240222051636 68 153 10.4 20.0 0.00 0.00 0.00 70 1008.6
20240222051128 68 153 13.0 20.0 0.00 0.00 0.00 70 1008.5
20240222050638 68 153 12.2 17.4 0.00 0.00 0.00 70 1008.5
20240222050153 68 153 7.0 17.4 0.00 0.00 0.00 70 1008.6
20240222045639 68 153 9.6 14.8 0.00 0.00 0.00 70 1008.6
20240222045133 69 153 6.1 16.5 0.00 0.00 0.00 69 1008.7
20240222044627 69 153 11.3 16.5 0.00 0.00 0.00 69 1008.8
20240222044137 69 153 8.7 19.1 0.00 0.00 0.00 69 1008.9
20240222043650 69 153 11.3 19.1 0.00 0.00 0.00 69 1009.0
20240222043140 69 153 9.6 15.6 0.00 0.00 0.00 69 1008.9
20240222042632 69 153 10.4 18.2 0.00 0.00 0.00 68 1008.9
20240222042125 69 153 10.4 18.2 0.00 0.00 0.00 68 1008.9
20240222041631 69 158 5.2 13.0 0.00 0.00 0.00 68 1008.9
20240222041140 69 153 7.0 14.8 0.00 0.00 0.00 67 1009.0
20240222040635 69 153 7.8 14.8 0.00 0.00 0.00 67 1008.9
20240222040128 69 153 7.8 16.5 0.00 0.00 0.00 67 1008.9
20240222035704 70 153 9.6 16.5 0.00 0.00 0.00 67 1008.9
20240222035134 70 153 7.0 15.6 0.00 0.00 0.00 66 1008.9
20240222034643 70 153 0.9 15.6 0.00 0.00 0.00 66 1009.0
20240222034132 70 153 5.2 15.6 0.00 0.00 0.00 66 1008.9
20240222033640 70 153 3.5 16.5 0.00 0.00 0.00 65 1008.9
20240222033156 70 153 8.7 16.5 0.00 0.00 0.00 65 1008.9
20240222032626 70 153 7.8 13.9 0.00 0.00 0.00 65 1009.0
20240222032142 70 153 0.9 14.8 0.00 0.00 0.00 65 1009.0
20240222031635 70 153 9.6 13.0 0.00 0.00 0.00 65 1009.1
20240222031147 70 153 5.2 18.2 0.00 0.00 0.00 64 1009.0
20240222030700 71 153 7.0 18.2 0.00 0.00 0.00 64 1009.0
20240222030129 71 153 2.6 14.8 0.00 0.00 0.00 64 1009.0
20240222025637 71 153 6.1 18.2 0.00 0.00 0.00 63 1008.9
20240222025124 71 153 13.0 18.2 0.00 0.00 0.00 63 1008.8
20240222024636 71 153 4.3 16.5 0.00 0.00 0.00 63 1008.8
20240222024126 71 153 5.2 16.5 0.00 0.00 0.00 63 1008.9
20240222023640 71 153 9.6 16.5 0.00 0.00 0.00 63 1009.0
20240222023140 71 153 12.2 17.4 0.00 0.00 0.00 62 1008.8
20240222022629 71 153 10.4 17.4 0.00 0.00 0.00 62 1008.8
20240222022136 71 153 7.8 17.4 0.00 0.00 0.00 62 1009.1
20240222021648 71 153 6.1 18.2 0.00 0.00 0.00 62 1009.1
20240222021156 71 153 8.7 18.2 0.00 0.00 0.00 62 1009.1
20240222020645 71 158 4.3 14.8 0.00 0.00 0.00 61 1009.4
20240222020139 71 153 0.9 12.2 0.00 0.00 0.00 61 1009.3
20240222015629 71 153 6.1 13.9 0.00 0.00 0.00 60 1009.3
20240222015138 72 153 2.6 13.9 0.00 0.00 0.00 60 1009.3
20240222014654 72 153 4.3 12.2 0.00 0.00 0.00 59 1009.2
20240222014438 72 153 9.6 17.4 0.00 0.00 0.00 59 1009.2
20240222013629 72 153 11.3 17.4 0.00 0.00 0.00 58 1009.1
20240222013123 72 153 9.6 14.8 0.00 0.00 0.00 58 1009.1
20240222012634 72 153 10.4 20.9 0.00 0.00 0.00 58 1009.0
20240222012137 72 153 8.7 20.9 0.00 0.00 0.00 57 1008.9
20240222011636 72 153 2.6 17.4 0.00 0.00 0.00 57 1008.9
20240222011148 72 153 12.2 17.4 0.00 0.00 0.00 57 1008.9
20240222010636 72 153 9.6 16.5 0.00 0.00 0.00 57 1008.8
20240222010211 72 153 1.7 13.0 0.00 0.00 0.00 57 1008.8
20240222005659 73 153 1.7 13.9 0.00 0.00 0.00 57 1008.7
20240222005145 73 153 5.2 14.8 0.00 0.00 0.00 58 1008.7
20240222004636 73 153 7.0 14.8 0.00 0.00 0.00 58 1008.8
20240222004130 73 102 3.5 13.9 0.00 0.00 0.00 58 1008.6
20240222003642 74 153 3.5 13.9 0.00 0.00 0.00 58 1008.7
20240222003130 74 162 4.3 13.9 0.00 0.00 0.00 58 1008.5
20240222002638 74 153 6.1 14.8 0.00 0.00 0.00 58 1008.3
20240222002128 74 153 7.8 15.6 0.00 0.00 0.00 57 1008.5
20240222001640 74 153 7.0 16.5 0.00 0.00 0.00 57 1008.6
20240222001131 75 153 10.4 16.5 0.00 0.00 0.00 56 1008.5
20240222000626 75 153 10.4 16.5 0.00 0.00 0.00 56 1008.5
20240222000205 75 153 9.6 15.6 0.00 0.00 0.00 56 1008.3
20240221235632 75 153 9.6 19.1 0.00 0.00 0.00 56 1008.3
20240221235126 76 153 11.3 19.1 0.00 0.00 0.00 55 1008.2
20240221234638 76 153 8.7 17.4 0.00 0.00 0.00 55 1008.0
20240221234127 76 153 10.4 17.4 0.00 0.00 0.00 54 1008.0
20240221233638 76 153 10.4 16.5 0.00 0.00 0.00 54 1008.0
20240221233130 77 153 7.0 13.9 0.00 0.00 0.00 53 1008.0
20240221232636 77 153 5.2 16.5 0.00 0.00 0.00 53 1008.3
20240221232144 77 153 10.4 16.5 0.00 0.00 0.00 52 1008.4
20240221231635 78 153 6.1 13.9 0.00 0.00 0.00 51 1008.4
20240221231146 78 153 5.2 13.9 0.00 0.00 0.00 50 1008.5
20240221230639 79 153 7.0 13.9 0.00 0.00 0.00 48 1008.5
20240221230128 79 153 6.1 12.2 0.00 0.00 0.00 48 1008.7
20240221225640 79 153 5.2 13.9 0.00 0.00 0.00 47 1008.8
20240221225131 79 153 9.6 13.9 0.00 0.00 0.00 46 1008.8
20240221224703 79 153 6.1 13.0 0.00 0.00 0.00 46 1008.8
20240221224134 79 153 4.3 17.4 0.00 0.00 0.00 46 1008.8
20240221223644 79 153 10.4 17.4 0.00 0.00 0.00 46 1008.8
20240221223154 79 153 11.3 16.5 0.00 0.00 0.00 45 1008.8
20240221222640 80 153 8.7 16.5 0.00 0.00 0.00 45 1008.9
20240221222123 80 153 2.6 13.0 0.00 0.00 0.00 45 1009.2
20240221221659 80 153 6.1 13.9 0.00 0.00 0.00 45 1009.3
20240221221129 80 153 8.7 12.2 0.00 0.00 0.00 45 1009.2
20240221220639 79 153 6.1 16.5 0.00 0.00 0.00 45 1009.5
20240221220130 80 153 7.8 16.5 0.00 0.00 0.00 45 1009.6
20240221215641 80 153 7.0 14.8 0.00 0.00 0.00 45 1009.6
20240221215127 81 153 8.7 14.8 0.00 0.00 0.00 45 1009.7
20240221214643 81 153 5.2 15.6 0.00 0.00 0.00 44 1009.6
20240221214159 81 153 11.3 16.5 0.00 0.00 0.00 45 1009.7
20240221213640 81 153 5.2 17.4 0.00 0.00 0.00 45 1010.1
20240221213127 81 153 9.6 17.4 0.00 0.00 0.00 45 1010.2
20240221212636 80 153 8.7 15.6 0.00 0.00 0.00 45 1010.3
20240221212126 80 153 10.4 14.8 0.00 0.00 0.00 45 1010.3
20240221211621 81 153 10.4 14.8 0.00 0.00 0.00 46 1010.5
20240221211133 80 153 9.6 15.6 0.00 0.00 0.00 46 1010.6
20240221210627 81 153 7.8 15.6 0.00 0.00 0.00 46 1010.6
20240221210135 80 153 3.5 14.8 0.00 0.00 0.00 46 1010.7
20240221205635 81 153 4.3 14.8 0.00 0.00 0.00 46 1010.8
20240221205128 81 153 3.5 13.0 0.00 0.00 0.00 46 1010.8
20240221204637 81 153 7.0 14.8 0.00 0.00 0.00 46 1010.9
20240221204128 80 153 4.3 13.9 0.00 0.00 0.00 47 1011.0
20240221203703 80 153 7.8 16.5 0.00 0.00 0.00 46 1011.1
20240221203152 80 153 5.2 16.5 0.00 0.00 0.00 47 1011.4
20240221202639 80 153 4.3 13.0 0.00 0.00 0.00 47 1011.6
20240221202142 80 153 9.6 13.0 0.00 0.00 0.00 47 1011.7
20240221201633 80 153 6.1 14.8 0.00 0.00 0.00 48 1011.9
20240221201127 79 153 7.8 14.8 0.00 0.00 0.00 48 1012.0
20240221200639 80 153 7.8 15.6 0.00 0.00 0.00 49 1012.0
20240221200128 79 153 8.7 15.6 0.00 0.00 0.00 49 1012.2
20240221195639 79 153 5.2 13.0 0.00 0.00 0.00 49 1012.2
20240221195134 79 153 4.3 13.9 0.00 0.00 0.00 50 1012.3
20240221194644 79 153 4.3 17.4 0.00 0.00 0.00 51 1012.4
20240221194146 78 153 7.8 17.4 0.00 0.00 0.00 51 1012.5
20240221193636 78 153 10.4 16.5 0.00 0.00 0.00 51 1012.7
20240221193125 78 153 10.4 15.6 0.00 0.00 0.00 52 1013.0
20240221192632 78 153 6.1 15.6 0.00 0.00 0.00 52 1013.0
20240221192124 78 153 3.5 17.4 0.00 0.00 0.00 53 1013.1
20240221191633 77 153 6.1 17.4 0.00 0.00 0.00 53 1013.3
20240221191143 77 153 0.0 18.2 0.00 0.00 0.00 55 1013.5
20240221190630 77 153 10.4 18.2 0.00 0.00 0.00 54 1013.7
20240221190130 76 153 0.9 16.5 0.00 0.00 0.00 56 1013.8
20240221185635 76 153 11.3 15.6 0.00 0.00 0.00 56 1013.9
20240221185125 75 153 7.0 14.8 0.00 0.00 0.00 57 1014.2
20240221184638 75 153 9.6 14.8 0.00 0.00 0.00 56 1014.4
20240221184141 75 153 9.6 15.6 0.00 0.00 0.00 57 1014.5
20240221183626 75 153 3.5 16.5 0.00 0.00 0.00 58 1014.7
20240221183137 75 153 8.7 16.5 0.00 0.00 0.00 58 1014.7
20240221182621 74 153 4.3 16.5 0.00 0.00 0.00 59 1014.9
20240221182147 74 153 9.6 15.6 0.00 0.00 0.00 59 1015.0
20240221181659 74 153 11.3 18.2 0.00 0.00 0.00 60 1015.1
20240221181128 74 153 12.2 18.2 0.00 0.00 0.00 59 1015.2
20240221180639 74 153 7.8 15.6 0.00 0.00 0.00 60 1015.4
20240221180129 73 153 7.0 14.8 0.00 0.00 0.00 60 1015.5
20240221175634 74 153 7.8 14.8 0.00 0.00 0.00 60 1015.6
20240221175144 73 153 3.5 14.8 0.00 0.00 0.00 61 1015.6
20240221174624 73 153 10.4 14.8 0.00 0.00 0.00 61 1015.7
20240221174137 72 153 5.2 15.6 0.00 0.00 0.00 62 1015.8
20240221173642 72 153 7.0 15.6 0.00 0.00 0.00 63 1015.9
20240221173134 72 153 7.8 15.6 0.00 0.00 0.00 62 1016.0
20240221172645 71 153 7.8 13.9 0.00 0.00 0.00 63 1016.0
20240221172151 71 153 2.6 14.8 0.00 0.00 0.00 63 1016.1
20240221171626 71 153 10.4 14.8 0.00 0.00 0.00 63 1016.1
20240221171140 71 153 9.6 14.8 0.00 0.00 0.00 64 1016.3
20240221170627 71 153 7.8 13.9 0.00 0.00 0.00 64 1016.3
20240221170137 70 153 6.1 13.0 0.00 0.00 0.00 65 1016.5
20240221165648 70 153 6.1 15.6 0.00 0.00 0.00 65 1016.5
20240221165133 70 153 7.0 15.6 0.00 0.00 0.00 66 1016.5
20240221164641 69 153 3.5 13.9 0.00 0.00 0.00 67 1016.5
20240221164151 69 153 7.8 13.9 0.00 0.00 0.00 67 1016.6
20240221163657 69 153 6.1 13.0 0.00 0.00 0.00 67 1016.6
20240221163143 68 153 4.3 13.0 0.00 0.00 0.00 68 1016.7
20240221162628 68 153 7.0 13.9 0.00 0.00 0.00 69 1016.6
20240221162139 68 153 7.8 13.9 0.00 0.00 0.00 69 1016.7
20240221161649 67 153 3.5 13.9 0.00 0.00 0.00 70 1016.7
20240221161155 67 153 5.2 14.8 0.00 0.00 0.00 71 1016.7
20240221160640 67 153 9.6 14.8 0.00 0.00 0.00 72 1016.8
20240221160153 66 153 0.0 14.8 0.00 0.00 0.00 72 1016.8
20240221155640 66 153 4.3 13.9 0.00 0.00 0.00 73 1016.8
20240221155146 65 153 8.7 13.9 0.00 0.00 0.00 74 1016.8
20240221154642 65 153 10.4 13.9 0.00 0.00 0.00 75 1016.9
20240221154148 65 153 6.1 12.2 0.00 0.00 0.00 75 1016.9
20240221153654 65 153 1.7 13.0 0.00 0.00 0.00 76 1017.0
20240221153143 64 153 5.2 14.8 0.00 0.00 0.00 77 1017.0
20240221152633 64 153 0.0 14.8 0.00 0.00 0.00 78 1017.0
20240221152135 63 153 0.9 6.1 0.00 0.00 0.00 79 1017.0
20240221151629 63 153 0.0 11.3 0.00 0.00 0.00 80 1017.1
20240221151139 62 153 3.5 12.2 0.00 0.00 0.00 81 1017.1
20240221150651 62 153 0.0 12.2 0.00 0.00 0.00 82 1017.0
20240221150144 61 153 2.6 11.3 0.00 0.00 0.00 83 1017.0
20240221145634 61 153 0.9 12.2 0.00 0.00 0.00 83 1017.0
20240221145125 61 153 7.0 11.3 0.00 0.00 0.00 83 1016.9
20240221144637 60 153 5.2 13.0 0.00 0.00 0.00 84 1016.9
20240221144137 60 153 7.8 13.0 0.00 0.00 0.00 84 1016.9
20240221143624 60 153 5.2 12.2 0.00 0.00 0.00 84 1016.9
20240221143137 60 153 6.1 12.2 0.00 0.00 0.00 84 1016.8
20240221142625 59 153 0.0 12.2 0.00 0.00 0.00 84 1016.7
20240221142137 59 153 4.3 12.2 0.00 0.00 0.00 84 1016.8
20240221141627 59 153 1.7 10.4 0.00 0.00 0.00 84 1016.8
20240221141136 59 153 3.5 10.4 0.00 0.00 0.00 84 1016.7
20240221140647 59 153 3.5 8.7 0.00 0.00 0.00 84 1016.8
20240221140155 59 153 0.0 8.7 0.00 0.00 0.00 84 1016.7
20240221135626 58 153 0.0 8.7 0.00 0.00 0.00 84 1016.7
20240221135135 58 153 0.0 8.7 0.00 0.00 0.00 84 1016.8
20240221134643 58 153 0.0 0.9 0.00 0.00 0.00 84 1016.8
20240221134130 58 153 0.0 0.9 0.00 0.00 0.00 84 1016.9
20240221133638 58 153 0.0 0.9 0.00 0.00 0.00 84 1016.9
20240221133149 58 153 0.0 0.9 0.00 0.00 0.00 84 1016.9
20240221132637 57 153 0.0 1.7 0.00 0.00 0.00 84 1016.8
20240221132125 57 158 0.0 3.5 0.00 0.00 0.00 84 1016.9
20240221131702 57 153 0.0 3.5 0.00 0.00 0.00 84 1016.9
20240221131131 57 153 0.0 0.0 0.00 0.00 0.00 84 1016.9
20240221130702 57 153 0.0 0.0 0.00 0.00 0.00 83 1016.8
20240221125644 57 153 0.0 0.0 0.00 0.00 0.00 83 1016.8
20240221125130 57 153 0.0 0.0 0.00 0.00 0.00 83 1016.8
20240221124637 57 153 0.0 0.0 0.00 0.00 0.00 82 1016.8
20240221124151 57 153 0.0 0.9 0.00 0.00 0.00 82 1016.7
20240221123658 58 153 0.0 0.9 0.00 0.00 0.00 82 1016.6
20240221123144 57 153 0.0 1.7 0.00 0.00 0.00 82 1016.6
20240221122634 57 153 0.0 1.7 0.00 0.00 0.00 82 1016.7
20240221122125 58 153 0.0 0.9 0.00 0.00 0.00 81 1016.7
20240221121634 58 153 0.0 0.9 0.00 0.00 0.00 81 1016.7
20240221121145 58 153 0.0 0.9 0.00 0.00 0.00 81 1016.6
20240221120634 58 153 0.0 0.0 0.00 0.00 0.00 81 1016.5